Regional Weather Roundup
Issued by NWS

Home | Current Version | Previous Version | Text Only | Print | Product List | Glossary Off
Versions: 1 2 3 4 5 6 7 8 9 10 11 12 13 14 15 16 17 18 19 20 21 22 23 24 25 26 27 28 29 30 31 32 33 34 35 36 37 38 39 40 41 42 43 44 45 46 47 48 49 50

000
ASUS43 KMPX 201601
RWRMN
WEATHER ROUNDUP FOR MINNESOTA
NATIONAL WEATHER SERVICE TWIN CITIES/CHANHASSEN MN
1000 AM CST MON FEB 20 2017


NOTE: "FAIR" INDICATES FEW OR NO CLOUDS BELOW 12,000 FEET WITH NO
SIGNIFICANT WEATHER AND/OR OBSTRUCTIONS TO VISIBILITY. N/A MEANS
CURRENT SKY AND/OR WEATHER CONDITIONS ARE NOT AVAILABLE.

MNZ060>063-068>070-201700-
   Twin Cities Metro

CITY           SKY/WX    TMP DP  RH WIND       PRES   REMARKS
TWIN CITIES    CLOUDY    50  44  80 SE9       29.79F
ST PAUL        CLOUDY    50  46  86 SE14      29.80F
CRYSTAL        CLOUDY    65  43  44 SE9       29.78S
LAKEVILLE      CLOUDY    48  46  93 SE12      29.79S
EDEN PRAIRIE   LGT RAIN  51  46  83 SE8       29.77F
SOUTH ST PAUL  PTSUNNY   51  45  82 SE7       29.80F
LAKE ELMO      FAIR      52  46  82 SE10G20   29.81F
$$
MNZ001>005-007-008-013>017-022>024-027-028-201700-
   Northwest Minnesota

CITY           SKY/WX    TMP DP  RH WIND       PRES   REMARKS
BEMIDJI        CLOUDY    40  37  92 SE8       29.68F
HALLOCK        LGT RAIN  37  37 100 S6        29.60F VSB<1/4
ROSEAU         DRIZZLE   39  34  81 SE9       29.62F
WARROAD        DRIZZLE   39  36  87 SE8       29.66F
THIEF RVR FALL LGT RAIN  42  41  96 S7        29.63F VSB 3/4
CROOKSTON      LGT RAIN  43  43 100 S9        29.62F
FOSSTON        RAIN      43  43 100 S9        29.65S
DETROIT LAKES  RAIN      43  43 100 S7        29.66F VSB 1/4
MOORHEAD       RAIN      48  46  93 S10       29.65F
PARK RAPIDS    CLOUDY    43  41  93 SE8       29.68F FOG
MAHNOMEN       RAIN      46  45  98 S10       29.64F
$$
MNZ006-009>011-018-025>026-201700-
   North Central Minnesota

CITY           SKY/WX    TMP DP  RH WIND       PRES   REMARKS
BAUDETTE       CLOUDY    40  38  93 SE6       29.69F
FLAG ISLAND    LGT RAIN  36  36 100 S14       29.67F
INTL FALLS     CLOUDY    43  35  73 SE10      29.73F
WASKISH        CLOUDY    46  43  87 S5        29.69R
BIG FORK       CLOUDY    46  37  71 S12G20    29.74S
LONGVILLE      CLOUDY    46  39  76 SE9       29.71F
GRAND RAPIDS   CLOUDY    45  38  76 SE15      29.75F
CRANE LAKE     CLOUDY    45  36  70 SE5       29.80F
ORR            CLOUDY    46  36  66 SE12G17   29.75F
COOK           CLOUDY    46  37  71 SE12      29.78F
WALKER         CLOUDY    43  39  87 SE5       29.71S
$$
MNZ012-019>021-037-201700-
   Northeast Minnesota

CITY           SKY/WX    TMP DP  RH WIND       PRES   REMARKS
DULUTH         CLOUDY    41  35  79 SE13      29.84F
ELY            CLOUDY    43  34  70 SE13      29.82F
HIBBING        CLOUDY    41  36  82 SE12      29.79F
EVELETH        CLOUDY    45  34  64 SE8G16    29.81F
DULUTH HARBOR  CLOUDY    37  34  87 NE16      29.88S
TWO HARBORS    CLOUDY    45  36  70 NE6       29.87S
SILVER BAY     CLOUDY    39  34  81 NE9       29.89F
GRAND MARAIS     N/A     41  32  70 NE12G20   29.98F
G MARAIS ARPRT CLOUDY    36  27  69 E9G17     29.95F
$$
MNZ029>031-032-039>041-046>048-054>057-064-201700-
   West Central Minnesota

CITY           SKY/WX    TMP DP  RH WIND       PRES   REMARKS
FERGUS FALLS   LGT RAIN  48  48 100 S7        29.68F
WHEATON        LGT RAIN  50  48  93 SE7       29.66S
MORRIS         LGT RAIN  48  48 100 S12       29.66S
ALEXANDRIA     CLOUDY    52  50  93 SE12      29.68F FOG
ELBOW LAKE     RAIN      49  49 100 S9        29.65F
WADENA         LGT RAIN  45  45 100 E6        29.67F
GLENWOOD       DRIZZLE   52  50  93 S13       29.69S
APPLETON       DRIZZLE   52  48  87 SE7       29.65F
BENSON         LGT RAIN  54  46  76 S9        29.69F
ORTONVILLE     FOG       48  46  93 CALM      29.64F VSB 1/2
WILLMAR        DRIZZLE   52  48  87 SE12      29.71F
$$
MNZ033>034-036-042>043-049>051-058-059-201700-
   Central Minnesota

CITY           SKY/WX    TMP DP  RH WIND       PRES   REMARKS
ST CLOUD       LGT RAIN  48  46  93 SE8       29.74F FOG
SAUK CENTRE    CLOUDY    48  46  93 SE7       29.70F
PAYNESVILLE    CLOUDY    51  46  85 S10G16    29.73S
AITKIN         CLOUDY    50  39  66 SE12      29.74S
PINE RIVER     CLOUDY    45  41  87 SE8       29.75S
BRAINERD       CLOUDY    49  44  83 SE10      29.73F
STAPLES        CLOUDY    48  45  87 SE6       29.70S
LONG PRAIRIE   LGT RAIN  46  45  93 E8        29.71R
LITTLE FALLS   CLOUDY    48  43  81 SE10G17   29.73S
LITCHFIELD     LGT RAIN  52  48  87 SE6       29.74S
BUFFALO        LGT RAIN  50  45  84 SE8       29.77S
MAPLE LAKE     HVY RAIN  50  46  88 SE6       29.76F
HUTCHINSON     LGT RAIN  51  49  95 SE6       29.75S
$$
MNZ037-044-045-052-053-201700-
   East Central Minnesota

CITY           SKY/WX    TMP DP  RH WIND       PRES   REMARKS
PRINCETON      CLOUDY    54  46  76 SE10      29.76F
MORA           CLOUDY    48  41  76 SE7       29.81F
CAMBRIDGE      CLOUDY    54  43  66 E9        29.76F
RUSH CITY      CLOUDY    52  45  76 SE15G23   29.81S
MOOSE LAKE     CLOUDY    39  34  81 NE3       29.81F
HINCKLEY       CLOUDY    50  43  76 SE7       29.81F
CLOQUET        CLOUDY    39  34  81 E8        29.83F
MCGREGOR       CLOUDY    45  37  76 SE9       29.78F
$$
MNZ071>073-080-081-089-090-097-098-201700-
   Southwest Minnesota

CITY           SKY/WX    TMP DP  RH WIND       PRES   REMARKS
MONTEVIDEO     RAIN      52  52 100 S10       29.68F
GRANITE FALLS  LGT RAIN  51  49  95 SE10      29.69F
CANBY          CLOUDY    56  54  92 SE10      29.64F
MARSHALL       CLOUDY    56  54  93 S14       29.67F
REDWOOD FALLS  LGT RAIN  51  48  89 S14       29.70S FOG
OLIVIA         DRIZZLE   50  46  87 SE10      29.70F
PIPESTONE      FOG       54  50  87 S13       29.66F VSB 1
WINDOM         DRIZZLE   54  52  94 SE15      29.71F
WORTHINGTON    LGT RAIN  51  51 100 S14       29.69F FOG
JACKSON        DRIZZLE   52  50  93 S12       29.73F
TRACY          LGT RAIN  55  53  96 S14       29.69F
SLAYTON        DRIZZLE   51  51  99 S12       29.69F
$$
MNZ065>067-074>077-082>085-091>093-201700-
   South Central Minnesota

CITY           SKY/WX    TMP DP  RH WIND       PRES   REMARKS
MANKATO        LGT RAIN  51  49  92 S12       29.77R FOG
NEW ULM        RAIN      52  48  87 SE7       29.74F
ST JAMES       DRIZZLE   52  50  93 SE14      29.75F
FAIRMONT       LGT RAIN  50  49  96 S15       29.74F FOG
GLENCOE        LGT RAIN  52  51  97 S8        29.75S
FARIBAULT      RAIN      52  48  87 SE14      29.79F
OWATONNA       DRIZZLE   50  46  87 SE16      29.78F
WASECA         LGT RAIN  50  46  87 SE13      29.77F
ALBERT LEA     RAIN      48  48 100 SE17G25   29.79F
$$
MNZ078>079-086>088-094>096-201700-
   Southeast Minnesota

CITY           SKY/WX    TMP DP  RH WIND       PRES   REMARKS
ROCHESTER      LGT RAIN  48  47  96 S16       29.86S FOG
RED WING       CLOUDY    54  46  76 E14       29.82F
STANTON        CLOUDY    53  47  82 SE15G22   29.79R
DODGE CENTER   LGT RAIN  46  46 100 SE17      29.82F
WINONA         CLOUDY    50  45  81 SE9       29.89F
AUSTIN         RAIN      48  46  93 SE14G20   29.82F
PRESTON        LGT RAIN  47  45  91 S10       29.89R
$$
ABBREVIATIONS USED IN REMARKS
   TC - TEMPERATURES IN CELSIUS
  WCI - WIND CHILL INDEX
   HX - HEAT INDEX
  VSB - VISIBILITY
$$




USA.gov is the U.S. government's official web portal to all federal, state and local government web resources and services.